Terminal Aerodrome Forecast
Issued by NWS

Home | Current Version | Previous Version | Text Only | Print | Product List | Glossary On
Versions: 1 2 3 4 5 6 7 8 9 10 11 12 13 14 15 16 17 18 19 20 21 22 23 24 25 26 27 28 29 30 31 32
000
FTUS45 KLKN 281607 AAB
TAFTPH
TAF AMD
KTPH 281607Z 2816/0112 04005KT 1/2SM FZFG VCSH VV002
      TEMPO 2817/2818 2SM BR SCT003 BKN040
     FM281800 32009KT P6SM VCSH OVC040
     FM010000 34010KT P6SM VCSH BKN040=

USA.gov is the U.S. government's official web portal to all federal, state and local government web resources and services.